Location: Allos
(44.2333°N, 6.6333°E)
Time: 05:26:41
(UTC+00:00)

NOSS 3-2 (A) - Pass Details

Date: 01 December 2020
Orbit: 789 x 1419 km, 63.4° (Epoch: 22 January)

Event Time Altitude Azimuth Distance (km) Brightness Sun altitude
Rises 18:32:25 0° 225° (SW) 3,336 7.0 -27.4°
Reaches altitude 10° 18:34:45 10° 229° (SW) 2,451 6.2 -27.8°
Maximum altitude 18:40:21 66° 311° (NW) 995 3.6 -28.8°
Enters shadow 18:41:26 55° 360° (N) 1,104 3.6 -29.0°
